This is the latest recevied weather packets stored in our database for station/object NC4J. If no packets are shown the sender has not sent any weather packets the latest 1 day(s).
| Time | Temp. | Humidity | Pressure | Rain* | Wind** | Luminosity | Snow |
|---|---|---|---|---|---|---|---|
| 1778020868 | 21.67° C | 41% | 1015 hPa | 0 mm | 0 m/s | 24 W/m² | - |
| 1778020565 | 21.67° C | 38% | 1014.8 hPa | 0 mm | 0.45 m/s, 3° | 20 W/m² | - |
| 1778020261 | 21.67° C | 39% | 1014.9 hPa | 0 mm | 1.34 m/s, 359° | 56 W/m² | - |
| 1778019957 | 22.22° C | 37% | 1015 hPa | 0 mm | 0.45 m/s, 346° | 30 W/m² | - |
| 1778019654 | 22.78° C | 38% | 1014.9 hPa | 0 mm | 0.45 m/s, 345° | 37 W/m² | - |
| 1778019351 | 22.78° C | 38% | 1015.2 hPa | 0 mm | 0.89 m/s, 4° | 140 W/m² | - |
| 1778019047 | 22.78° C | 38% | 1015 hPa | 0 mm | 0 m/s | 65 W/m² | - |
| 1778018745 | 22.78° C | 40% | 1014.8 hPa | 0 mm | 0.89 m/s, 133° | 124 W/m² | - |
| 1778018442 | 22.78° C | 38% | 1015.1 hPa | 0 mm | 0.45 m/s, 111° | 112 W/m² | - |
| 1778018140 | 22.78° C | 37% | 1014.9 hPa | 0 mm | 0.89 m/s, 344° | 142 W/m² | - |
| 1778017838 | 22.78° C | 36% | 1014.8 hPa | 0 mm | 0.89 m/s, 244° | 297 W/m² | - |
| 1778017536 | 22.78° C | 39% | 1015 hPa | 0 mm | 0.89 m/s, 327° | 186 W/m² | - |
| 1778017232 | 22.78° C | 37% | 1015 hPa | 0 mm | 0.45 m/s, 77° | 322 W/m² | - |
| 1778016930 | 22.22° C | 37% | 1015 hPa | 0 mm | 0.89 m/s, 264° | 245 W/m² | - |
| 1778016626 | 22.22° C | 37% | 1014.9 hPa | 0 mm | 0.89 m/s, 306° | 190 W/m² | - |
| 1778016323 | 22.22° C | 36% | 1015.1 hPa | 0 mm | 0.45 m/s, 97° | 97 W/m² | - |
| 1778016020 | 22.22° C | 35% | 1015 hPa | 0 mm | 0.89 m/s, 341° | 72 W/m² | - |
| 1778015717 | 21.67° C | 35% | 1015.1 hPa | 0 mm | 2.68 m/s, 308° | 81 W/m² | - |
| 1778015414 | 21.67° C | 36% | 1015.1 hPa | 0 mm | 0 m/s | 86 W/m² | - |
| 1778015110 | 21.11° C | 38% | 1015.4 hPa | 0 mm | 0 m/s | 84 W/m² | - |
| 1778014807 | 21.11° C | 37% | 1015.4 hPa | 0 mm | 0.45 m/s, 118° | 71 W/m² | - |
| 1778014506 | 21.11° C | 36% | 1015.4 hPa | 0 mm | 0.45 m/s, 10° | 76 W/m² | - |
| 1778014202 | 21.11° C | 38% | 1015.2 hPa | 0 mm | 0.45 m/s, 107° | 79 W/m² | - |
| 1778013900 | 21.11° C | 40% | 1015.4 hPa | 0 mm | 0.45 m/s, 97° | 96 W/m² | - |
| 1778013597 | 21.11° C | 39% | 1015.3 hPa | 0 mm | 0.45 m/s, 89° | 107 W/m² | - |
* Rain latest hour (hover to see other rain measurements)
** Current wind speed in m/s (hover to see current wind gust speed)